Date String (YYYY-MM-DD hh:mm:ss) UTC,Instrument flags,Ambient pressure (hPa),Sample flow (lpm),Bypass flow (lpm),Sample temperature (°C),Ambient temperature (°C),ASC tube jacket temperature (°C),LED temperature (°C),Box temperature (°C),Sample RH (%),Span deviation,Mass concentration (μg/m³),Mass concentration (μg/m³),Mass concentration (μg/m³)
DateTimeUTC,F1_M11,P_M11,Q1_M11,Q2_M11,T1_M11,T2_M11,T3_M11,T4_M11,T5_M11,U1_M11,ZSPAN_M11,X0_M11,X2_M11,X1_M11
2022-11-23 00:00:00,,0826.6,5.00,0.00,26.9,25.3,00.0,35.9,28.7,07.2,0000.0,0009.69,0003.97,0003.30
2022-11-23 00:01:00,,0826.6,5.00,0.00,26.9,25.3,00.0,35.9,28.7,07.1,0000.0,0009.70,0003.97,0003.30
2022-11-23 00:02:00,,0826.6,5.00,0.00,26.9,25.3,00.0,35.9,28.7,07.1,0000.0,0009.99,0003.99,0003.31
2022-11-23 00:03:00,,0826.6,4.99,0.00,26.9,25.3,00.0,35.9,28.6,07.3,0000.0,0010.17,0004.05,0003.35
2022-11-23 00:04:00,,0826.6,4.99,0.00,26.9,25.3,00.0,35.9,28.5,07.2,0000.0,0010.12,0004.11,0003.38
2022-11-23 00:05:00,,0826.6,5.00,0.00,26.8,25.2,00.0,35.9,28.5,07.3,0000.0,0009.92,0004.10,0003.40
2022-11-23 00:06:00,,0826.6,5.00,0.00,26.8,25.2,00.0,35.9,28.6,07.3,0000.0,0009.74,0004.07,0003.38
2022-11-23 00:07:00,,0826.6,5.00,0.00,26.8,25.2,00.0,35.8,28.6,07.2,0000.0,0009.70,0004.07,0003.38
2022-11-23 00:08:00,,0826.6,5.00,0.00,26.8,25.2,00.0,35.8,28.6,07.2,0000.0,0009.73,0004.12,0003.38
2022-11-23 00:09:00,,0826.5,5.01,0.00,26.8,25.2,00.0,35.8,28.6,07.2,0000.0,0010.11,0004.05,0003.37
2022-11-23 00:10:00,,0826.5,5.00,0.00,26.8,25.2,00.0,35.8,28.5,07.2,0000.0,0010.68,0004.05,0003.36
2022-11-23 00:11:00,,0826.5,5.00,0.00,26.8,25.2,00.0,35.8,28.5,07.1,0000.0,0010.55,0004.06,0003.34
2022-11-23 00:12:00,,0826.5,5.00,0.00,26.8,25.1,00.0,35.8,28.5,07.0,0000.0,0010.78,0004.05,0003.33
2022-11-23 00:13:00,,0826.5,5.00,0.00,26.7,25.1,00.0,35.8,28.4,07.0,0000.0,0012.08,0004.04,0003.32
2022-11-23 00:14:00,,0826.5,4.99,0.00,26.7,25.1,00.0,35.7,28.5,06.9,0000.0,0012.63,0004.01,0003.30
2022-11-23 00:15:00,,0826.5,5.00,0.00,26.7,25.1,00.0,35.7,28.4,07.1,0000.0,0013.89,0003.98,0003.27
2022-11-23 00:16:00,,0826.5,4.99,0.00,26.7,25.1,00.0,35.7,28.4,06.9,0000.0,0014.26,0003.97,0003.25
2022-11-23 00:17:00,,0826.5,5.00,0.00,26.7,25.1,00.0,35.7,28.4,06.9,0000.0,0013.98,0003.94,0003.24
2022-11-23 00:18:00,,0826.5,5.00,0.00,26.7,25.1,00.0,35.7,28.4,06.9,0000.0,0013.94,0003.92,0003.21
2022-11-23 00:19:00,,0826.5,4.99,0.00,26.7,25.0,00.0,35.7,28.5,06.9,0000.0,0014.35,0003.86,0003.19
2022-11-23 00:20:00,,0826.5,4.99,0.00,26.7,25.0,00.0,35.7,28.4,06.8,0000.0,0013.88,0003.87,0003.17
2022-11-23 00:21:00,,0826.6,5.00,0.00,26.6,25.1,00.0,35.7,28.4,06.8,0000.0,0013.83,0003.86,0003.16
2022-11-23 00:22:00,,0826.5,5.00,0.00,26.6,25.1,00.0,35.7,28.4,06.8,0000.0,0014.51,0003.86,0003.16
2022-11-23 00:23:00,,0826.5,5.01,0.00,26.6,25.0,00.0,35.6,28.4,06.8,0000.0,0014.57,0003.88,0003.15
2022-11-23 00:24:00,,0826.6,5.00,0.00,26.6,25.0,00.0,35.6,28.3,06.8,0000.0,0013.22,0003.84,0003.14
2022-11-23 00:25:00,,0826.6,5.00,0.00,26.6,25.0,00.0,35.6,28.2,06.8,0000.0,0012.65,0003.82,0003.13
2022-11-23 00:26:00,,0826.6,5.00,0.00,26.6,25.0,00.0,35.6,28.3,06.8,0000.0,0011.77,0003.82,0003.13
2022-11-23 00:27:00,,0826.6,5.00,0.00,26.6,25.0,00.0,35.6,28.3,06.8,0000.0,0011.03,0003.81,0003.13
2022-11-23 00:28:00,,0826.6,5.00,0.00,26.6,25.0,00.0,35.6,28.3,07.0,0000.0,0011.92,0003.85,0003.14
2022-11-23 00:29:00,,0826.6,4.99,0.00,26.6,25.0,00.0,35.6,28.3,07.3,0000.0,0012.23,0003.86,0003.14
2022-11-23 00:30:00,,0826.6,5.00,0.00,26.6,25.0,00.0,35.6,28.3,07.5,0000.0,0012.12,0003.84,0003.15
2022-11-23 00:31:00,,0826.7,5.00,0.00,26.6,25.0,00.0,35.6,28.3,07.5,0000.0,0012.08,0003.85,0003.16
2022-11-23 00:32:00,,0826.6,5.00,0.00,26.6,25.0,00.0,35.6,28.3,07.4,0000.0,0011.71,0003.85,0003.16
2022-11-23 00:33:00,,0826.6,5.01,0.00,26.5,24.9,00.0,35.5,28.3,07.2,0000.0,0011.38,0003.88,0003.16
2022-11-23 00:34:00,,0826.7,5.00,0.00,26.5,24.9,00.0,35.5,28.2,07.2,0000.0,0011.20,0003.89,0003.16
2022-11-23 00:35:00,,0826.6,5.00,0.00,26.5,24.9,00.0,35.5,28.1,07.1,0000.0,0011.17,0003.92,0003.18
2022-11-23 00:36:00,,0826.6,4.99,0.00,26.5,24.9,00.0,35.5,28.2,07.1,0000.0,0010.94,0003.96,0003.19
2022-11-23 00:37:00,,0826.6,4.99,0.00,26.5,24.8,00.0,35.5,28.2,07.6,0000.0,0010.61,0003.98,0003.20
2022-11-23 00:38:00,,0826.5,5.00,0.00,26.5,24.8,00.0,35.5,28.2,07.5,0000.0,0010.55,0003.99,0003.20
2022-11-23 00:39:00,,0826.5,5.00,0.00,26.4,24.8,00.0,35.5,28.1,07.3,0000.0,0009.93,0003.97,0003.20
2022-11-23 00:40:00,,0826.5,5.00,0.00,26.4,24.8,00.0,35.5,28.1,07.3,0000.0,0009.60,0003.96,0003.21
2022-11-23 00:41:00,,0826.5,5.00,0.00,26.4,24.7,00.0,35.5,28.1,07.2,0000.0,0009.08,0004.01,0003.22
2022-11-23 00:42:00,,0826.5,5.01,0.00,26.4,24.7,00.0,35.4,28.1,07.3,0000.0,0009.29,0004.00,0003.20
2022-11-23 00:43:00,,0826.5,5.00,0.00,26.4,24.7,00.0,35.4,28.1,07.3,0000.0,0010.12,0004.00,0003.20
2022-11-23 00:44:00,,0826.5,5.00,0.00,26.4,24.7,00.0,35.4,28.1,07.4,0000.0,0010.87,0003.95,0003.20
2022-11-23 00:45:00,,0826.6,4.99,0.00,26.4,24.7,00.0,35.4,28.1,07.6,0000.0,0010.78,0003.95,0003.20
2022-11-23 00:46:00,,0826.6,5.00,0.00,26.3,24.7,00.0,35.4,28.0,07.6,0000.0,0010.74,0003.95,0003.21
2022-11-23 00:47:00,,0826.5,4.99,0.00,26.3,24.7,00.0,35.4,28.0,07.4,0000.0,0010.98,0003.94,0003.22
2022-11-23 00:48:00,,0826.6,5.00,0.00,26.3,24.6,00.0,35.3,28.0,07.3,0000.0,0011.13,0003.95,0003.22
2022-11-23 00:49:00,,0826.6,5.01,0.00,26.3,24.6,00.0,35.3,28.0,07.2,0000.0,0011.25,0003.97,0003.23
2022-11-23 00:50:00,,0826.6,5.01,0.00,26.3,24.6,00.0,35.3,27.9,07.2,0000.0,0011.22,0003.97,0003.23
2022-11-23 00:51:00,,0826.6,5.00,0.00,26.2,24.6,00.0,35.3,27.9,07.8,0000.0,0011.26,0003.99,0003.23
2022-11-23 00:52:00,,0826.6,4.99,0.00,26.2,24.6,00.0,35.3,27.9,08.0,0000.0,0011.92,0004.05,0003.24
2022-11-23 00:53:00,,0826.6,5.00,0.00,26.2,24.6,00.0,35.3,27.8,07.6,0000.0,0011.72,0004.08,0003.25
2022-11-23 00:54:00,,0826.5,5.00,0.00,26.2,24.5,00.0,35.3,27.9,07.4,0000.0,0010.93,0004.10,0003.27
2022-11-23 00:55:00,,0826.5,5.00,0.00,26.2,24.5,00.0,35.2,27.9,07.2,0000.0,0010.31,0004.12,0003.27
2022-11-23 00:56:00,,0826.5,5.00,0.00,26.2,24.5,00.0,35.2,27.9,07.1,0000.0,0010.62,0004.11,0003.27
2022-11-23 00:57:00,,0826.5,5.00,0.00,26.2,24.5,00.0,35.2,27.9,07.1,0000.0,0010.93,0004.11,0003.27
2022-11-23 00:58:00,,0826.5,5.00,0.00,26.2,24.5,00.0,35.2,27.9,07.1,0000.0,0010.78,0004.14,0003.27
2022-11-23 00:59:00,,0826.5,5.00,0.00,26.1,24.5,00.0,35.2,27.9,07.2,0000.0,0010.69,0004.12,0003.26
